Orbital Elements at Epoch 2459000.5 (2020-May-31.0) TDB
Reference: JPL 23 (heliocentric ecliptic J2000)
Element | Value | Uncertainty (1-sigma) | Units |
e | .2891384505226438 | 7.0546e-08 | |
a | 2.576511322493123 | 1.5369e-08 | au |
q | 1.831542830953414 | 1.8623e-07 | au |
i | 13.3971412603164 | 5.3936e-06 | deg |
node | 20.35598634298288 | 2.2339e-05 | deg |
peri | 30.0032104962631 | 2.4824e-05 | deg |
M | 51.36260327752883 | 7.337e-06 | deg |
tp | 2458784.978283840754 (2019-Oct-28.47828384) | 3.1212e-05 | TDB |
period | 1510.589667702327 4.14 | 1.3516e-05 3.7e-08 | d yr |
n | .2383175310258648 | 2.1323e-09 | deg/d |
Q | 3.321479814032832 | 1.9812e-08 | au |
|
| | Orbit Determination Parameters
Additional Information
|